Time,TemperatureF,DewpointF,PressureIn,WindDirection,WindDirectionDegrees,WindSpeedMPH,WindSpeedGustMPH,Humidity,HourlyPrecipIn,Conditions,Clouds,dailyrainin,SoftwareType,DateUTC
2013-05-18 00:01:00,65.0,63.2,30.04,WSW,252,0.0,3.0,94,0.04,-RA,,0.00,WeatherDisplay:10.37,2013-05-18 04:01:00,
2013-05-18 00:10:00,65.0,63.2,30.04,WSW,252,0.0,2.0,94,0.03,-RA,,0.03,WeatherDisplay:10.37,2013-05-18 04:10:00,
2013-05-18 00:20:00,65.0,63.5,30.05,WSW,252,1.0,3.0,95,0.02,-RA,,0.05,WeatherDisplay:10.37,2013-05-18 04:20:00,
2013-05-18 00:31:00,65.0,63.5,30.06,WSW,252,0.0,2.0,95,0.03,-RA,,0.08,WeatherDisplay:10.37,2013-05-18 04:31:00,
2013-05-18 00:40:00,65.0,63.5,30.05,WSW,252,1.0,3.0,95,0.02,-RA,,0.10,WeatherDisplay:10.37,2013-05-18 04:40:00,
2013-05-18 00:50:00,65.0,63.5,30.05,South,183,2.0,7.0,95,0.02,-RA,,0.12,WeatherDisplay:10.37,2013-05-18 04:50:00,
2013-05-18 01:01:00,65.0,63.5,30.05,SSW,208,2.0,6.0,95,0.05,-RA,,0.17,WeatherDisplay:10.37,2013-05-18 05:01:00,
2013-05-18 01:10:00,65.0,63.5,30.04,South,178,0.0,3.0,95,0.02,RA,,0.19,WeatherDisplay:10.37,2013-05-18 05:10:00,
2013-05-18 01:20:00,65.0,63.5,30.04,SSE,152,2.0,8.0,95,0.01,RA,,0.20,WeatherDisplay:10.37,2013-05-18 05:20:00,
2013-05-18 01:31:00,64.9,63.7,30.04,South,180,3.0,6.0,96,0.00,OVC,,0.20,WeatherDisplay:10.37,2013-05-18 05:31:00,
2013-05-18 01:40:00,64.9,63.4,30.03,SSE,155,3.0,8.0,95,0.00,OVC,,0.20,WeatherDisplay:10.37,2013-05-18 05:40:00,
2013-05-18 01:50:00,64.9,63.7,30.03,South,190,1.0,8.0,96,0.00,OVC,,0.20,WeatherDisplay:10.37,2013-05-18 05:50:00,
2013-05-18 02:01:00,64.9,63.7,30.02,SSE,152,2.0,6.0,96,0.00,OVC,,0.20,WeatherDisplay:10.37,2013-05-18 06:01:00,
2013-05-18 02:10:00,64.9,63.7,30.02,SSW,196,1.0,6.0,96,0.00,OVC,,0.20,WeatherDisplay:10.37,2013-05-18 06:10:00,
2013-05-18 02:20:00,64.9,63.8,30.02,SSW,193,2.0,7.0,96,0.00,OVC,,0.20,WeatherDisplay:10.37,2013-05-18 06:20:00,
2013-05-18 02:31:00,65.0,63.8,30.01,SSW,210,1.0,7.0,96,0.00,OVC,,0.20,WeatherDisplay:10.37,2013-05-18 06:31:00,
2013-05-18 02:40:00,65.0,63.5,30.00,SSE,161,3.0,7.0,95,0.00,OVC,,0.20,WeatherDisplay:10.37,2013-05-18 06:40:00,
2013-05-18 02:50:00,65.0,63.8,30.00,SSW,213,0.0,5.0,96,0.00,OVC,,0.20,WeatherDisplay:10.37,2013-05-18 06:50:00,
2013-05-18 03:01:00,65.0,63.8,30.00,SSW,193,0.0,7.0,96,0.00,OVC,,0.20,WeatherDisplay:10.37,2013-05-18 07:01:00,
2013-05-18 03:10:00,65.1,63.9,30.00,SSW,204,0.0,8.0,96,0.00,OVC,,0.20,WeatherDisplay:10.37,2013-05-18 07:10:00,
2013-05-18 03:20:00,65.1,63.9,30.00,SSW,201,0.0,10.0,96,0.00,OVC,,0.20,WeatherDisplay:10.37,2013-05-18 07:20:00,
2013-05-18 03:31:00,65.1,63.9,30.00,SSW,201,0.0,4.0,96,0.00,OVC,,0.20,WeatherDisplay:10.37,2013-05-18 07:31:00,
2013-05-18 03:40:00,65.1,63.9,30.00,WSW,239,1.0,6.0,96,0.00,OVC,,0.20,WeatherDisplay:10.37,2013-05-18 07:40:00,
2013-05-18 03:50:00,65.1,63.9,30.00,South,187,1.0,6.0,96,0.01,RA,,0.21,WeatherDisplay:10.37,2013-05-18 07:50:00,
2013-05-18 04:01:00,65.1,63.9,30.00,SSW,205,3.0,8.0,96,0.01,RA,,0.22,WeatherDisplay:10.37,2013-05-18 08:01:00,
2013-05-18 04:10:00,65.1,63.9,30.00,SW,224,1.0,6.0,96,0.00,BKN,,0.22,WeatherDisplay:10.37,2013-05-18 08:10:00,
2013-05-18 04:20:00,65.1,63.9,30.00,SW,226,2.0,7.0,96,0.00,BKN,,0.22,WeatherDisplay:10.37,2013-05-18 08:20:00,
2013-05-18 04:31:00,65.1,63.9,30.01,SW,225,3.0,5.0,96,0.00,BKN,,0.22,WeatherDisplay:10.37,2013-05-18 08:31:00,
2013-05-18 04:40:00,65.2,64.0,30.00,SSW,201,1.0,8.0,96,0.00,OVC,,0.22,WeatherDisplay:10.37,2013-05-18 08:40:00,
2013-05-18 04:50:00,65.2,64.0,30.00,SSW,206,2.0,8.0,96,0.00,OVC,,0.22,WeatherDisplay:10.37,2013-05-18 08:50:00,
2013-05-18 05:01:00,65.2,64.0,30.00,SSW,192,0.0,5.0,96,0.00,OVC,,0.22,WeatherDisplay:10.37,2013-05-18 09:01:00,
2013-05-18 05:10:00,65.2,64.0,30.00,SSW,213,2.0,6.0,96,0.00,OVC,,0.22,WeatherDisplay:10.37,2013-05-18 09:10:00,
2013-05-18 05:20:00,65.2,64.0,30.01,WSW,238,1.0,4.0,96,0.00,OVC,,0.22,WeatherDisplay:10.37,2013-05-18 09:20:00,
2013-05-18 05:31:00,65.2,64.0,30.01,SW,222,1.0,4.0,96,0.00,OVC,,0.22,WeatherDisplay:10.37,2013-05-18 09:31:00,
2013-05-18 05:40:00,65.2,64.0,30.01,SW,222,3.0,7.0,96,0.00,OVC,,0.22,WeatherDisplay:10.37,2013-05-18 09:40:00,
2013-05-18 05:50:00,65.2,64.0,30.01,SW,221,0.0,6.0,96,0.00,OVC,,0.22,WeatherDisplay:10.37,2013-05-18 09:50:00,
2013-05-18 06:01:00,65.3,64.1,30.01,SSW,212,2.0,6.0,96,0.00,OVC,,0.22,WeatherDisplay:10.37,2013-05-18 10:01:00,
2013-05-18 06:10:00,65.3,64.1,30.01,SW,227,2.0,5.0,96,0.00,OVC,,0.22,WeatherDisplay:10.37,2013-05-18 10:10:00,
2013-05-18 06:20:00,65.2,64.0,30.01,SSW,205,0.0,5.0,96,0.00,OVC,,0.22,WeatherDisplay:10.37,2013-05-18 10:20:00,
2013-05-18 06:31:00,65.2,64.0,30.01,SSW,206,0.0,3.0,96,0.00,OVC,,0.22,WeatherDisplay:10.37,2013-05-18 10:31:00,
2013-05-18 06:40:00,65.2,64.0,30.01,SSW,193,2.0,5.0,96,0.00,BKN,,0.22,WeatherDisplay:10.37,2013-05-18 10:40:00,
2013-05-18 06:50:00,65.2,64.0,30.01,SSW,193,1.0,4.0,96,0.00,BKN,,0.22,WeatherDisplay:10.37,2013-05-18 10:50:00,
2013-05-18 07:01:00,65.2,64.0,30.01,SSW,212,1.0,6.0,96,0.00,BKN,,0.22,WeatherDisplay:10.37,2013-05-18 11:01:00,
2013-05-18 07:10:00,65.2,64.0,30.02,SSW,211,3.0,6.0,96,0.00,SCT,,0.22,WeatherDisplay:10.37,2013-05-18 11:10:00,
2013-05-18 07:20:00,65.2,64.0,30.02,WSW,247,2.0,6.0,96,0.00,SCT,,0.22,WeatherDisplay:10.37,2013-05-18 11:20:00,
2013-05-18 07:31:00,65.2,64.0,30.03,WSW,250,1.0,4.0,96,0.00,SCT,,0.22,WeatherDisplay:10.37,2013-05-18 11:31:00,
2013-05-18 07:40:00,65.3,64.1,30.03,NNE,14,0.0,3.0,96,0.00,BKN,,0.22,WeatherDisplay:10.37,2013-05-18 11:40:00,
2013-05-18 07:50:00,65.3,64.1,30.04,SW,229,2.0,4.0,96,0.00,OVC,,0.22,WeatherDisplay:10.37,2013-05-18 11:50:00,
2013-05-18 08:01:00,65.3,64.1,30.04,SW,226,3.0,7.0,96,0.00,OVC,,0.22,WeatherDisplay:10.37,2013-05-18 12:01:00,
2013-05-18 08:10:00,65.3,64.2,30.03,SW,221,1.0,3.0,96,0.00,OVC,,0.22,WeatherDisplay:10.37,2013-05-18 12:10:00,
2013-05-18 08:20:00,65.4,64.2,30.04,SW,221,0.0,3.0,96,0.00,OVC,,0.22,WeatherDisplay:10.37,2013-05-18 12:20:00,
2013-05-18 08:31:00,65.5,64.3,30.04,SW,221,0.0,5.0,96,0.00,OVC,,0.22,WeatherDisplay:10.37,2013-05-18 12:31:00,
2013-05-18 08:40:00,65.6,64.4,30.04,South,191,2.0,5.0,96,0.00,OVC,,0.22,WeatherDisplay:10.37,2013-05-18 12:40:00,
2013-05-18 08:50:00,65.7,64.5,30.04,South,182,0.0,3.0,96,0.00,OVC,,0.22,WeatherDisplay:10.37,2013-05-18 12:50:00,
2013-05-18 09:01:00,65.8,64.6,30.05,South,169,1.0,5.0,96,0.00,OVC,,0.22,WeatherDisplay:10.37,2013-05-18 13:01:00,
2013-05-18 09:10:00,66.0,64.8,30.05,SSW,198,0.0,4.0,96,0.00,OVC,,0.22,WeatherDisplay:10.37,2013-05-18 13:10:00,
2013-05-18 09:20:00,66.1,64.9,30.05,SSE,165,0.0,5.0,96,0.00,OVC,,0.22,WeatherDisplay:10.37,2013-05-18 13:20:00,
2013-05-18 09:31:00,66.2,64.7,30.05,South,172,3.0,8.0,95,0.00,OVC,,0.22,WeatherDisplay:10.37,2013-05-18 13:31:00,
2013-05-18 09:40:00,66.3,65.1,30.05,SSE,151,3.0,7.0,96,0.00,OVC,,0.22,WeatherDisplay:10.37,2013-05-18 13:40:00,
2013-05-18 09:50:00,66.5,65.0,30.05,SSW,202,1.0,7.0,95,0.00,OVC,,0.22,WeatherDisplay:10.37,2013-05-18 13:50:00,
2013-05-18 10:01:00,66.7,65.2,30.04,SSW,205,3.0,5.0,95,0.00,OVC,,0.22,WeatherDisplay:10.37,2013-05-18 14:01:00,
2013-05-18 10:10:00,66.9,65.4,30.04,South,184,2.0,8.0,95,0.00,OVC,,0.22,WeatherDisplay:10.37,2013-05-18 14:10:00,
2013-05-18 10:20:00,67.0,65.5,30.04,SSW,201,3.0,8.0,95,0.00,OVC,,0.22,WeatherDisplay:10.37,2013-05-18 14:20:00,
2013-05-18 10:31:00,67.2,65.4,30.04,South,176,1.0,8.0,94,0.00,OVC,,0.22,WeatherDisplay:10.37,2013-05-18 14:31:00,
2013-05-18 10:40:00,67.4,65.6,30.04,SSW,210,1.0,8.0,94,0.00,OVC,,0.22,WeatherDisplay:10.37,2013-05-18 14:40:00,
2013-05-18 10:50:00,67.6,65.8,30.04,SW,217,1.0,9.0,94,0.00,OVC,,0.22,WeatherDisplay:10.37,2013-05-18 14:50:00,
2013-05-18 11:01:00,67.7,65.9,30.05,SSW,202,1.0,5.0,94,0.00,OVC,,0.22,WeatherDisplay:10.37,2013-05-18 15:01:00,
2013-05-18 11:10:00,67.9,66.1,30.04,South,184,1.0,7.0,94,0.00,OVC,,0.22,WeatherDisplay:10.37,2013-05-18 15:10:00,
2013-05-18 11:20:00,68.1,66.3,30.04,SSW,192,0.0,5.0,94,0.00,OVC,,0.22,WeatherDisplay:10.37,2013-05-18 15:20:00,
2013-05-18 11:31:00,68.4,66.3,30.04,South,179,1.0,6.0,93,0.00,OVC,,0.22,WeatherDisplay:10.37,2013-05-18 15:31:00,
2013-05-18 11:40:00,68.7,66.3,30.05,SSW,211,3.0,6.0,92,0.00,OVC,,0.22,WeatherDisplay:10.37,2013-05-18 15:40:00,
2013-05-18 11:50:00,69.0,66.6,30.05,WSW,239,0.0,6.0,92,0.00,OVC,,0.22,WeatherDisplay:10.37,2013-05-18 15:50:00,
2013-05-18 12:01:00,69.5,66.8,30.05,South,178,1.0,8.0,91,0.00,OVC,,0.22,WeatherDisplay:10.37,2013-05-18 16:01:00,
2013-05-18 12:10:00,69.5,66.8,30.05,SE,140,2.0,7.0,91,0.00,OVC,,0.22,WeatherDisplay:10.37,2013-05-18 16:10:00,
2013-05-18 12:20:00,69.7,66.9,30.05,South,185,1.0,6.0,91,0.00,OVC,,0.22,WeatherDisplay:10.37,2013-05-18 16:20:00,
2013-05-18 12:31:00,69.9,66.8,30.05,South,180,3.0,9.0,90,0.00,OVC,,0.22,WeatherDisplay:10.37,2013-05-18 16:31:00,
2013-05-18 12:40:00,70.1,67.0,30.05,South,176,2.0,12.0,90,0.00,OVC,,0.22,WeatherDisplay:10.37,2013-05-18 16:40:00,
2013-05-18 12:50:00,70.2,67.1,30.05,SSW,203,5.0,12.0,90,0.00,OVC,,0.22,WeatherDisplay:10.37,2013-05-18 16:50:00,
2013-05-18 13:01:00,70.2,67.1,30.05,South,183,2.0,7.0,90,0.00,OVC,,0.22,WeatherDisplay:10.37,2013-05-18 17:01:00,
2013-05-18 13:10:00,70.2,67.1,30.05,South,189,2.0,6.0,90,0.00,OVC,,0.22,WeatherDisplay:10.37,2013-05-18 17:10:00,
2013-05-18 13:20:00,70.2,67.4,30.05,South,176,1.0,5.0,91,0.00,OVC,,0.22,WeatherDisplay:10.37,2013-05-18 17:20:00,
2013-05-18 13:31:00,70.1,67.3,30.04,SSE,157,2.0,6.0,91,0.00,OVC,,0.22,WeatherDisplay:10.37,2013-05-18 17:31:00,
2013-05-18 13:40:00,70.1,67.7,30.04,SSE,168,0.0,5.0,92,0.00,OVC,,0.22,WeatherDisplay:10.37,2013-05-18 17:40:00,
2013-05-18 13:50:00,70.1,67.3,30.04,SSE,152,0.0,6.0,91,0.00,OVC,,0.22,WeatherDisplay:10.37,2013-05-18 17:50:00,
2013-05-18 14:01:00,69.9,67.5,30.04,SSE,166,2.0,6.0,92,0.00,OVC,,0.22,WeatherDisplay:10.37,2013-05-18 18:01:00,
2013-05-18 14:10:00,69.9,67.5,30.04,SSE,158,1.0,5.0,92,0.00,OVC,,0.22,WeatherDisplay:10.37,2013-05-18 18:10:00,
2013-05-18 14:20:00,69.8,67.4,30.04,SSE,167,5.0,6.0,92,0.00,OVC,,0.22,WeatherDisplay:10.37,2013-05-18 18:20:00,
2013-05-18 14:31:00,69.9,67.5,30.04,South,172,0.0,6.0,92,0.00,OVC,,0.22,WeatherDisplay:10.37,2013-05-18 18:31:00,
2013-05-18 14:40:00,70.1,67.7,30.03,South,187,2.0,6.0,92,0.00,OVC,,0.22,WeatherDisplay:10.37,2013-05-18 18:40:00,
2013-05-18 14:50:00,70.4,67.6,30.03,South,178,2.0,8.0,91,0.00,-RA,,0.22,WeatherDisplay:10.37,2013-05-18 18:50:00,
2013-05-18 15:01:00,70.4,67.6,30.03,South,172,0.0,10.0,91,0.00,-RA,,0.22,WeatherDisplay:10.37,2013-05-18 19:01:00,
2013-05-18 15:10:00,70.0,67.6,30.02,SE,139,0.0,8.0,92,0.00,OVC,,0.22,WeatherDisplay:10.37,2013-05-18 19:10:00,
2013-05-18 15:20:00,70.2,67.7,30.02,South,171,1.0,7.0,92,0.00,OVC,,0.22,WeatherDisplay:10.37,2013-05-18 19:20:00,
2013-05-18 15:31:00,70.6,67.8,30.02,SSE,160,3.0,9.0,91,0.00,OVC,,0.22,WeatherDisplay:10.37,2013-05-18 19:31:00,
2013-05-18 15:40:00,70.8,68.1,30.02,SSW,212,0.0,8.0,91,0.00,OVC,,0.22,WeatherDisplay:10.37,2013-05-18 19:40:00,
2013-05-18 15:50:00,71.3,68.5,30.02,SE,130,2.0,7.0,91,0.00,OVC,,0.22,WeatherDisplay:10.37,2013-05-18 19:50:00,
2013-05-18 16:01:00,71.6,68.5,30.01,SE,135,5.0,8.0,90,0.00,OVC,,0.22,WeatherDisplay:10.37,2013-05-18 20:01:00,
2013-05-18 16:10:00,71.5,68.1,30.01,South,174,2.0,10.0,89,0.00,OVC,,0.22,WeatherDisplay:10.37,2013-05-18 20:10:00,
2013-05-18 16:20:00,71.4,68.0,30.01,SSW,197,3.0,7.0,89,0.00,OVC,,0.22,WeatherDisplay:10.37,2013-05-18 20:20:00,
2013-05-18 16:31:00,71.5,68.4,30.00,SSW,197,2.0,9.0,90,0.00,OVC,,0.22,WeatherDisplay:10.37,2013-05-18 20:31:00,
2013-05-18 16:40:00,71.9,68.8,30.00,South,181,2.0,9.0,90,0.00,OVC,,0.22,WeatherDisplay:10.37,2013-05-18 20:40:00,
2013-05-18 16:50:00,72.6,68.8,30.00,SW,231,2.0,10.0,88,0.00,OVC,,0.22,WeatherDisplay:10.37,2013-05-18 20:50:00,
2013-05-18 17:01:00,72.7,68.6,30.00,SSW,204,8.0,15.0,87,0.00,OVC,,0.22,WeatherDisplay:10.37,2013-05-18 21:01:00,
2013-05-18 17:10:00,72.5,68.7,30.00,South,176,3.0,12.0,88,0.00,OVC,,0.22,WeatherDisplay:10.37,2013-05-18 21:10:00,
2013-05-18 17:20:00,72.6,68.5,30.00,SSW,205,2.0,10.0,87,0.00,OVC,,0.22,WeatherDisplay:10.37,2013-05-18 21:20:00,
2013-05-18 17:31:00,72.6,68.5,30.00,South,177,1.0,10.0,87,0.00,OVC,,0.22,WeatherDisplay:10.37,2013-05-18 21:31:00,
2013-05-18 17:40:00,72.7,68.6,30.00,SW,221,5.0,8.0,87,0.00,OVC,,0.22,WeatherDisplay:10.37,2013-05-18 21:40:00,
2013-05-18 17:50:00,72.5,68.4,30.00,SW,219,2.0,9.0,87,0.00,OVC,,0.22,WeatherDisplay:10.37,2013-05-18 21:50:00,
2013-05-18 18:01:00,72.8,68.7,29.99,SSW,204,3.0,10.0,87,0.00,OVC,,0.22,WeatherDisplay:10.37,2013-05-18 22:01:00,
2013-05-18 18:10:00,73.3,68.9,29.99,SSW,193,6.0,14.0,86,0.00,OVC,,0.22,WeatherDisplay:10.37,2013-05-18 22:10:00,
2013-05-18 18:20:00,73.2,68.7,29.99,SSW,204,5.0,9.0,86,0.00,OVC,,0.22,WeatherDisplay:10.37,2013-05-18 22:20:00,
2013-05-18 18:31:00,73.1,69.0,29.99,SSW,211,3.0,10.0,87,0.00,OVC,,0.22,WeatherDisplay:10.37,2013-05-18 22:31:00,
2013-05-18 18:40:00,73.4,69.3,29.99,SSW,197,6.0,10.0,87,0.00,OVC,,0.22,WeatherDisplay:10.37,2013-05-18 22:40:00,
2013-05-18 18:50:00,73.5,69.1,29.99,SSW,207,3.0,10.0,86,0.00,OVC,,0.22,WeatherDisplay:10.37,2013-05-18 22:50:00,
2013-05-18 19:01:00,73.2,69.1,29.99,SSW,202,3.0,9.0,87,0.00,OVC,,0.22,WeatherDisplay:10.37,2013-05-18 23:01:00,
2013-05-18 19:10:00,73.2,69.1,29.99,SSW,192,1.0,8.0,87,0.00,OVC,,0.22,WeatherDisplay:10.37,2013-05-18 23:10:00,
2013-05-18 19:20:00,73.1,69.3,29.99,SSW,198,1.0,8.0,88,0.00,OVC,,0.22,WeatherDisplay:10.37,2013-05-18 23:20:00,
2013-05-18 19:31:00,73.0,69.2,30.00,SSW,198,0.0,7.0,88,0.00,OVC,,0.22,WeatherDisplay:10.37,2013-05-18 23:31:00,
2013-05-18 19:40:00,72.9,69.2,30.00,SSW,197,3.0,8.0,88,0.00,OVC,,0.22,WeatherDisplay:10.37,2013-05-18 23:40:00,
2013-05-18 19:50:00,72.8,69.0,30.00,SSE,156,3.0,7.0,88,0.00,OVC,,0.22,WeatherDisplay:10.37,2013-05-18 23:50:00,
2013-05-18 20:01:00,72.4,68.6,30.00,South,179,3.0,8.0,88,0.00,OVC,,0.22,WeatherDisplay:10.37,2013-05-19 00:01:00,
2013-05-18 20:10:00,72.2,68.8,30.01,SSW,210,0.0,6.0,89,0.00,OVC,,0.22,WeatherDisplay:10.37,2013-05-19 00:10:00,
2013-05-18 20:20:00,72.1,68.7,30.00,South,184,2.0,6.0,89,0.00,OVC,,0.22,WeatherDisplay:10.37,2013-05-19 00:20:00,
2013-05-18 20:31:00,71.9,68.5,30.01,South,174,5.0,8.0,89,0.00,OVC,,0.22,WeatherDisplay:10.37,2013-05-19 00:31:00,
2013-05-18 20:40:00,71.8,68.4,30.00,South,187,3.0,8.0,89,0.00,OVC,,0.22,WeatherDisplay:10.37,2013-05-19 00:40:00,
2013-05-18 20:50:00,71.7,68.6,30.01,SSW,202,0.0,6.0,90,0.00,OVC,,0.22,WeatherDisplay:10.37,2013-05-19 00:50:00,
2013-05-18 21:01:00,71.6,68.5,30.01,SSW,204,1.0,6.0,90,0.00,OVC,,0.22,WeatherDisplay:10.37,2013-05-19 01:01:00,
2013-05-18 21:10:00,71.5,68.4,30.01,South,186,2.0,7.0,90,0.00,OVC,,0.22,WeatherDisplay:10.37,2013-05-19 01:10:00,
2013-05-18 21:20:00,71.3,68.2,30.01,SSE,162,1.0,9.0,90,0.00,OVC,,0.22,WeatherDisplay:10.37,2013-05-19 01:20:00,
2013-05-18 21:31:00,71.2,68.4,30.01,South,190,0.0,5.0,91,0.00,OVC,,0.22,WeatherDisplay:10.37,2013-05-19 01:31:00,
2013-05-18 21:40:00,71.1,68.4,30.01,SSE,161,1.0,4.0,91,0.00,OVC,,0.22,WeatherDisplay:10.37,2013-05-19 01:40:00,
2013-05-18 21:50:00,71.1,68.3,30.01,SSW,202,3.0,8.0,91,0.00,OVC,,0.22,WeatherDisplay:10.37,2013-05-19 01:50:00,
2013-05-18 22:01:00,71.0,68.2,30.01,SW,215,1.0,7.0,91,0.01,RA,,0.23,WeatherDisplay:10.37,2013-05-19 02:01:00,
2013-05-18 22:10:00,70.7,68.5,30.02,SW,230,3.0,6.0,93,0.06,RA,,0.29,WeatherDisplay:10.37,2013-05-19 02:10:00,
2013-05-18 22:20:00,70.1,68.3,30.02,SW,216,1.0,5.0,94,0.00,OVC,,0.29,WeatherDisplay:10.37,2013-05-19 02:20:00,
2013-05-18 22:31:00,69.9,68.1,30.02,South,178,2.0,8.0,94,0.00,OVC,,0.29,WeatherDisplay:10.37,2013-05-19 02:31:00,
2013-05-18 22:40:00,69.7,68.2,30.02,South,181,3.0,7.0,95,0.01,RA,,0.30,WeatherDisplay:10.37,2013-05-19 02:40:00,
2013-05-18 22:50:00,69.5,68.0,30.03,SSW,209,3.0,6.0,95,0.07,RA,,0.37,WeatherDisplay:10.37,2013-05-19 02:50:00,
2013-05-18 23:01:00,69.3,67.8,30.02,SSW,209,0.0,6.0,95,0.07,RA,,0.44,WeatherDisplay:10.37,2013-05-19 03:01:00,
2013-05-18 23:10:00,69.1,67.9,30.02,SW,235,0.0,4.0,96,0.08,RA,,0.52,WeatherDisplay:10.37,2013-05-19 03:10:00,
2013-05-18 23:20:00,68.9,67.7,30.02,SW,216,1.0,5.0,96,0.00,OVC,,0.52,WeatherDisplay:10.37,2013-05-19 03:20:00,
2013-05-18 23:31:00,68.8,67.6,30.02,South,191,5.0,8.0,96,0.00,OVC,,0.52,WeatherDisplay:10.37,2013-05-19 03:31:00,
2013-05-18 23:40:00,68.8,67.6,30.02,SW,216,1.0,8.0,96,0.00,OVC,,0.52,WeatherDisplay:10.37,2013-05-19 03:40:00,
2013-05-18 23:50:00,68.8,67.6,30.02,WSW,249,2.0,5.0,96,0.00,OVC,,0.52,WeatherDisplay:10.37,2013-05-19 03:50:00,